Time,TemperatureF,DewpointF,PressureIn,WindDirection,WindDirectionDegrees,WindSpeedMPH,WindSpeedGustMPH,Humidity,HourlyPrecipIn,Conditions,Clouds,dailyrainin,SoftwareType,DateUTC
2013-10-29 00:01:00,31.5,21.1,30.30,North,0,0.0,2.0,65,0.00,,,0.00,WUHU216HW,2013-10-29 05:01:00,
2013-10-29 00:06:00,31.3,21.2,30.30,North,0,2.0,2.0,66,0.00,,,0.00,WUHU216HW,2013-10-29 05:06:00,
2013-10-29 00:11:00,31.1,21.1,30.30,NNE,23,1.0,2.0,66,0.00,,,0.00,WUHU216HW,2013-10-29 05:11:00,
2013-10-29 00:16:00,31.3,21.6,30.30,NE,45,0.0,2.0,67,0.00,,,0.00,WUHU216HW,2013-10-29 05:16:00,
2013-10-29 00:21:00,31.3,21.6,30.30,NE,45,2.0,2.0,67,0.00,,,0.00,WUHU216HW,2013-10-29 05:21:00,
2013-10-29 00:26:00,31.3,22.0,30.30,NNE,23,2.0,3.0,68,0.00,,,0.00,WUHU216HW,2013-10-29 05:26:00,
2013-10-29 00:31:00,31.5,22.1,30.30,NNE,23,1.0,3.0,68,0.00,,,0.00,WUHU216HW,2013-10-29 05:31:00,
2013-10-29 00:36:00,31.7,22.3,30.30,ENE,68,0.0,2.0,68,0.00,,,0.00,WUHU216HW,2013-10-29 05:36:00,
2013-10-29 00:41:00,32.0,22.7,30.29,NNE,23,2.0,2.0,68,0.00,,,0.00,WUHU216HW,2013-10-29 05:41:00,
2013-10-29 00:46:00,32.2,23.6,30.29,NNE,23,2.0,3.0,70,0.00,,,0.00,WUHU216HW,2013-10-29 05:46:00,
2013-10-29 00:51:00,32.8,23.7,30.28,ESE,113,1.0,5.0,69,0.00,,,0.00,WUHU216HW,2013-10-29 05:51:00,
2013-10-29 00:56:00,33.1,23.7,30.28,East,90,3.0,5.0,68,0.00,,,0.00,WUHU216HW,2013-10-29 05:56:00,
2013-10-29 01:01:00,33.5,23.6,30.28,WSW,248,0.0,5.0,67,0.00,,,0.00,WUHU216HW,2013-10-29 06:01:00,
2013-10-29 01:06:00,33.5,23.6,30.28,ENE,68,2.0,5.0,67,0.00,,,0.00,WUHU216HW,2013-10-29 06:06:00,
2013-10-29 01:11:00,33.5,23.6,30.27,East,90,3.0,4.0,67,0.00,,,0.00,WUHU216HW,2013-10-29 06:11:00,
2013-10-29 01:16:00,33.5,23.9,30.27,NE,45,5.0,5.0,68,0.00,,,0.00,WUHU216HW,2013-10-29 06:16:00,
2013-10-29 01:21:00,33.5,23.9,30.28,East,90,2.0,5.0,68,0.00,,,0.00,WUHU216HW,2013-10-29 06:21:00,
2013-10-29 01:26:00,33.5,23.6,30.27,NE,45,4.0,5.0,67,0.00,,,0.00,WUHU216HW,2013-10-29 06:26:00,
2013-10-29 01:31:00,33.5,23.9,30.28,East,90,1.0,6.0,68,0.00,,,0.00,WUHU216HW,2013-10-29 06:31:00,
2013-10-29 01:36:00,33.5,23.6,30.28,ENE,68,3.0,6.0,67,0.00,,,0.00,WUHU216HW,2013-10-29 06:36:00,
2013-10-29 01:41:00,33.5,23.6,30.28,ENE,68,1.0,4.0,67,0.00,,,0.00,WUHU216HW,2013-10-29 06:41:00,
2013-10-29 01:46:00,33.5,23.6,30.28,NE,45,3.0,4.0,67,0.00,,,0.00,WUHU216HW,2013-10-29 06:46:00,
2013-10-29 01:51:00,33.5,23.6,30.28,East,90,0.0,3.0,67,0.00,,,0.00,WUHU216HW,2013-10-29 06:51:00,
2013-10-29 01:56:00,33.5,23.6,30.29,East,90,1.0,3.0,67,0.00,,,0.00,WUHU216HW,2013-10-29 06:56:00,
2013-10-29 02:01:00,33.7,23.8,30.29,NNE,23,2.0,3.0,67,0.00,,,0.00,WUHU216HW,2013-10-29 07:01:00,
2013-10-29 02:06:00,33.7,24.1,30.29,ENE,68,1.0,3.0,68,0.00,,,0.00,WUHU216HW,2013-10-29 07:06:00,
2013-10-29 02:11:00,33.7,24.1,30.29,NNE,23,1.0,4.0,68,0.00,,,0.00,WUHU216HW,2013-10-29 07:11:00,
2013-10-29 02:16:00,33.8,24.3,30.28,NNE,23,1.0,5.0,68,0.00,,,0.00,WUHU216HW,2013-10-29 07:16:00,
2013-10-29 02:21:00,33.8,24.3,30.28,NNE,23,3.0,5.0,68,0.00,,,0.00,WUHU216HW,2013-10-29 07:21:00,
2013-10-29 02:26:00,33.8,24.7,30.28,East,90,3.0,3.0,69,0.00,,,0.00,WUHU216HW,2013-10-29 07:26:00,
2013-10-29 02:31:00,33.8,24.3,30.28,East,90,3.0,4.0,68,0.00,,,0.00,WUHU216HW,2013-10-29 07:31:00,
2013-10-29 02:36:00,33.8,24.3,30.28,East,90,2.0,4.0,68,0.00,,,0.00,WUHU216HW,2013-10-29 07:36:00,
2013-10-29 02:41:00,33.8,24.3,30.28,ENE,68,2.0,3.0,68,0.00,,,0.00,WUHU216HW,2013-10-29 07:41:00,
2013-10-29 02:46:00,33.8,24.3,30.28,ENE,68,1.0,3.0,68,0.00,,,0.00,WUHU216HW,2013-10-29 07:46:00,
2013-10-29 02:51:00,34.0,24.1,30.28,NNE,23,3.0,3.0,67,0.00,,,0.00,WUHU216HW,2013-10-29 07:51:00,
2013-10-29 02:56:00,34.0,24.1,30.28,East,90,1.0,3.0,67,0.00,,,0.00,WUHU216HW,2013-10-29 07:56:00,
2013-10-29 03:01:00,34.0,24.1,30.28,East,90,0.0,3.0,67,0.00,,,0.00,WUHU216HW,2013-10-29 08:01:00,
2013-10-29 03:06:00,34.0,24.1,30.28,East,90,1.0,3.0,67,0.00,,,0.00,WUHU216HW,2013-10-29 08:06:00,
2013-10-29 03:11:00,34.0,24.1,30.29,ENE,68,3.0,3.0,67,0.00,,,0.00,WUHU216HW,2013-10-29 08:11:00,
2013-10-29 03:16:00,34.0,24.1,30.29,ENE,68,0.0,3.0,67,0.00,,,0.00,WUHU216HW,2013-10-29 08:16:00,
2013-10-29 03:21:00,34.2,24.3,30.29,NNE,23,0.0,3.0,67,0.00,,,0.00,WUHU216HW,2013-10-29 08:21:00,
2013-10-29 03:26:00,34.2,24.3,30.28,East,90,1.0,2.0,67,0.00,,,0.00,WUHU216HW,2013-10-29 08:26:00,
2013-10-29 03:31:00,34.2,24.3,30.28,East,90,0.0,3.0,67,0.00,,,0.00,WUHU216HW,2013-10-29 08:31:00,
2013-10-29 03:36:00,34.2,24.3,30.28,North,0,0.0,3.0,67,0.00,,,0.00,WUHU216HW,2013-10-29 08:36:00,
2013-10-29 03:41:00,34.2,24.3,30.29,NNE,23,3.0,3.0,67,0.00,,,0.00,WUHU216HW,2013-10-29 08:41:00,
2013-10-29 03:46:00,34.4,24.5,30.28,NNE,23,1.0,3.0,67,0.00,,,0.00,WUHU216HW,2013-10-29 08:46:00,
2013-10-29 03:51:00,34.6,24.7,30.28,NE,45,1.0,3.0,67,0.00,,,0.00,WUHU216HW,2013-10-29 08:51:00,
2013-10-29 03:56:00,34.6,24.7,30.28,ENE,68,1.0,3.0,67,0.00,,,0.00,WUHU216HW,2013-10-29 08:56:00,
2013-10-29 04:01:00,34.6,24.7,30.28,NNE,23,2.0,3.0,67,0.00,,,0.00,WUHU216HW,2013-10-29 09:01:00,
2013-10-29 04:06:00,34.6,24.7,30.27,NE,45,0.0,3.0,67,0.00,,,0.00,WUHU216HW,2013-10-29 09:06:00,
2013-10-29 04:11:00,34.7,24.8,30.27,ENE,68,3.0,3.0,67,0.00,,,0.00,WUHU216HW,2013-10-29 09:11:00,
2013-10-29 04:16:00,34.7,24.8,30.27,NE,45,1.0,5.0,67,0.00,,,0.00,WUHU216HW,2013-10-29 09:16:00,
2013-10-29 04:21:00,34.9,25.0,30.27,NE,45,2.0,5.0,67,0.00,,,0.00,WUHU216HW,2013-10-29 09:21:00,
2013-10-29 04:26:00,34.9,25.0,30.27,NNE,23,2.0,3.0,67,0.00,,,0.00,WUHU216HW,2013-10-29 09:26:00,
2013-10-29 04:31:00,34.9,25.0,30.27,North,0,3.0,4.0,67,0.00,,,0.00,WUHU216HW,2013-10-29 09:31:00,
2013-10-29 04:36:00,34.9,25.0,30.27,ESE,113,1.0,4.0,67,0.00,,,0.00,WUHU216HW,2013-10-29 09:36:00,
2013-10-29 04:41:00,35.1,25.2,30.27,NE,45,4.0,4.0,67,0.00,,,0.00,WUHU216HW,2013-10-29 09:41:00,
2013-10-29 04:46:00,35.1,25.2,30.27,NNE,23,2.0,4.0,67,0.00,,,0.00,WUHU216HW,2013-10-29 09:46:00,
2013-10-29 04:51:00,35.1,25.6,30.26,North,0,1.0,4.0,68,0.00,,,0.00,WUHU216HW,2013-10-29 09:51:00,
2013-10-29 04:56:00,35.3,25.4,30.27,ESE,113,2.0,5.0,67,0.00,,,0.00,WUHU216HW,2013-10-29 09:56:00,
2013-10-29 05:01:00,35.1,25.6,30.27,East,90,3.0,5.0,68,0.00,,,0.00,WUHU216HW,2013-10-29 10:01:00,
2013-10-29 05:06:00,34.9,25.4,30.27,East,90,1.0,3.0,68,0.00,,,0.00,WUHU216HW,2013-10-29 10:06:00,
2013-10-29 05:11:00,34.9,25.4,30.26,ENE,68,3.0,3.0,68,0.00,,,0.00,WUHU216HW,2013-10-29 10:11:00,
2013-10-29 05:16:00,34.9,25.4,30.27,ENE,68,0.0,3.0,68,0.00,,,0.00,WUHU216HW,2013-10-29 10:16:00,
2013-10-29 05:21:00,34.9,25.4,30.27,ENE,68,1.0,4.0,68,0.00,,,0.00,WUHU216HW,2013-10-29 10:21:00,
2013-10-29 05:26:00,34.9,25.4,30.27,North,0,2.0,4.0,68,0.00,,,0.00,WUHU216HW,2013-10-29 10:26:00,
2013-10-29 05:31:00,34.9,25.4,30.26,NE,45,2.0,5.0,68,0.00,,,0.00,WUHU216HW,2013-10-29 10:31:00,
2013-10-29 05:36:00,34.9,25.4,30.27,NNE,23,1.0,5.0,68,0.00,,,0.00,WUHU216HW,2013-10-29 10:36:00,
2013-10-29 05:41:00,34.9,25.4,30.27,NNE,23,2.0,4.0,68,0.00,,,0.00,WUHU216HW,2013-10-29 10:41:00,
2013-10-29 05:46:00,34.9,25.7,30.26,East,90,2.0,4.0,69,0.00,,,0.00,WUHU216HW,2013-10-29 10:46:00,
2013-10-29 05:51:00,34.9,25.7,30.26,East,90,2.0,4.0,69,0.00,,,0.00,WUHU216HW,2013-10-29 10:51:00,
2013-10-29 05:56:00,34.9,25.7,30.26,ESE,113,0.0,4.0,69,0.00,,,0.00,WUHU216HW,2013-10-29 10:56:00,
2013-10-29 06:01:00,34.9,26.1,30.25,ESE,113,4.0,5.0,70,0.00,,,0.00,WUHU216HW,2013-10-29 11:01:00,
2013-10-29 06:06:00,34.9,26.1,30.25,East,90,4.0,5.0,70,0.00,,,0.00,WUHU216HW,2013-10-29 11:06:00,
2013-10-29 06:11:00,34.9,26.1,30.25,East,90,4.0,5.0,70,0.00,,,0.00,WUHU216HW,2013-10-29 11:11:00,
2013-10-29 06:16:00,34.9,26.1,30.25,ENE,68,3.0,5.0,70,0.00,,,0.00,WUHU216HW,2013-10-29 11:16:00,
2013-10-29 06:21:00,34.9,26.1,30.24,East,90,4.0,5.0,70,0.00,,,0.00,WUHU216HW,2013-10-29 11:21:00,
2013-10-29 06:26:00,34.9,26.1,30.24,East,90,3.0,5.0,70,0.00,,,0.00,WUHU216HW,2013-10-29 11:26:00,
2013-10-29 06:31:00,34.9,26.1,30.23,East,90,6.0,7.0,70,0.00,,,0.00,WUHU216HW,2013-10-29 11:31:00,
2013-10-29 06:36:00,35.1,26.7,30.23,ENE,68,4.0,7.0,71,0.00,,,0.00,WUHU216HW,2013-10-29 11:36:00,
2013-10-29 06:41:00,35.1,26.7,30.22,ENE,68,4.0,6.0,71,0.00,,,0.00,WUHU216HW,2013-10-29 11:41:00,
2013-10-29 06:46:00,35.1,26.7,30.22,East,90,3.0,6.0,71,0.00,,,0.00,WUHU216HW,2013-10-29 11:46:00,
2013-10-29 06:51:00,34.9,26.7,30.22,ESE,113,5.0,5.0,72,0.00,,,0.00,WUHU216HW,2013-10-29 11:51:00,
2013-10-29 06:56:00,35.1,26.7,30.21,East,90,5.0,7.0,71,0.00,,,0.00,WUHU216HW,2013-10-29 11:56:00,
2013-10-29 07:01:00,35.1,26.7,30.21,ESE,113,6.0,7.0,71,0.00,,,0.00,WUHU216HW,2013-10-29 12:01:00,
2013-10-29 07:06:00,35.1,26.7,30.21,ESE,113,3.0,7.0,71,0.00,,,0.00,WUHU216HW,2013-10-29 12:06:00,
2013-10-29 07:11:00,35.1,26.9,30.21,ESE,113,3.0,8.0,72,0.00,,,0.00,WUHU216HW,2013-10-29 12:11:00,
2013-10-29 07:16:00,35.1,26.9,30.21,East,90,6.0,8.0,72,0.00,,,0.00,WUHU216HW,2013-10-29 12:16:00,
2013-10-29 07:21:00,35.1,26.9,30.21,East,90,6.0,6.0,72,0.00,,,0.00,WUHU216HW,2013-10-29 12:21:00,
2013-10-29 07:26:00,35.1,26.9,30.22,SSE,158,4.0,6.0,72,0.00,,,0.00,WUHU216HW,2013-10-29 12:26:00,
2013-10-29 07:31:00,35.1,26.9,30.22,ESE,113,6.0,8.0,72,0.00,,,0.00,WUHU216HW,2013-10-29 12:31:00,
2013-10-29 07:36:00,35.1,27.3,30.22,ESE,113,4.0,8.0,73,0.00,,,0.00,WUHU216HW,2013-10-29 12:36:00,
2013-10-29 07:41:00,35.1,26.9,30.21,ESE,113,6.0,7.0,72,0.00,,,0.00,WUHU216HW,2013-10-29 12:41:00,
2013-10-29 07:46:00,35.1,27.3,30.22,East,90,5.0,7.0,73,0.00,,,0.00,WUHU216HW,2013-10-29 12:46:00,
2013-10-29 07:51:00,35.1,27.3,30.21,East,90,5.0,7.0,73,0.00,,,0.00,WUHU216HW,2013-10-29 12:51:00,
2013-10-29 07:56:00,35.1,27.3,30.20,East,90,5.0,6.0,73,0.00,,,0.00,WUHU216HW,2013-10-29 12:56:00,
2013-10-29 08:01:00,35.1,27.3,30.21,ESE,113,5.0,7.0,73,0.00,,,0.00,WUHU216HW,2013-10-29 13:01:00,
2013-10-29 08:06:00,35.3,27.5,30.21,East,90,7.0,7.0,73,0.00,,,0.00,WUHU216HW,2013-10-29 13:06:00,
2013-10-29 08:11:00,35.3,27.5,30.20,ESE,113,5.0,7.0,73,0.00,,,0.00,WUHU216HW,2013-10-29 13:11:00,
2013-10-29 08:16:00,35.3,27.5,30.20,ESE,113,3.0,7.0,73,0.00,,,0.00,WUHU216HW,2013-10-29 13:16:00,
2013-10-29 08:21:00,35.5,27.6,30.20,ESE,113,4.0,7.0,73,0.00,,,0.00,WUHU216HW,2013-10-29 13:21:00,
2013-10-29 08:26:00,35.6,27.8,30.20,ESE,113,7.0,7.0,73,0.00,,,0.00,WUHU216HW,2013-10-29 13:26:00,
2013-10-29 08:31:00,35.6,27.8,30.20,ESE,113,5.0,8.0,73,0.00,,,0.00,WUHU216HW,2013-10-29 13:31:00,
2013-10-29 08:36:00,35.6,27.8,30.20,East,90,5.0,8.0,73,0.00,,,0.00,WUHU216HW,2013-10-29 13:36:00,
2013-10-29 08:41:00,35.8,28.0,30.20,ESE,113,5.0,9.0,73,0.00,,,0.00,WUHU216HW,2013-10-29 13:41:00,
2013-10-29 08:46:00,35.8,28.0,30.20,ENE,68,5.0,9.0,73,0.00,,,0.00,WUHU216HW,2013-10-29 13:46:00,
2013-10-29 08:51:00,35.8,28.0,30.20,East,90,6.0,7.0,73,0.00,,,0.00,WUHU216HW,2013-10-29 13:51:00,
2013-10-29 08:56:00,36.0,28.2,30.20,East,90,5.0,10.0,73,0.00,,,0.00,WUHU216HW,2013-10-29 13:56:00,
2013-10-29 09:01:00,36.0,28.2,30.20,ESE,113,7.0,10.0,73,0.00,,,0.00,WUHU216HW,2013-10-29 14:01:00,
2013-10-29 09:06:00,36.0,28.2,30.20,SE,135,5.0,7.0,73,0.00,,,0.00,WUHU216HW,2013-10-29 14:06:00,
2013-10-29 09:11:00,36.0,28.2,30.20,SE,135,5.0,7.0,73,0.00,,,0.00,WUHU216HW,2013-10-29 14:11:00,
2013-10-29 09:16:00,36.2,28.4,30.20,ESE,113,7.0,8.0,73,0.00,,,0.00,WUHU216HW,2013-10-29 14:16:00,
2013-10-29 09:21:00,36.2,28.4,30.20,ESE,113,5.0,8.0,73,0.00,,,0.00,WUHU216HW,2013-10-29 14:21:00,
2013-10-29 09:26:00,36.2,28.4,30.20,East,90,7.0,8.0,73,0.00,,,0.00,WUHU216HW,2013-10-29 14:26:00,
2013-10-29 09:31:00,36.2,28.4,30.19,SE,135,5.0,9.0,73,0.00,,,0.00,WUHU216HW,2013-10-29 14:31:00,
2013-10-29 09:36:00,36.2,28.4,30.19,ESE,113,7.0,9.0,73,0.00,,,0.00,WUHU216HW,2013-10-29 14:36:00,
2013-10-29 09:41:00,36.2,28.4,30.19,ESE,113,6.0,8.0,73,0.00,,,0.00,WUHU216HW,2013-10-29 14:41:00,
2013-10-29 09:46:00,36.4,28.5,30.19,ESE,113,7.0,8.0,73,0.00,,,0.00,WUHU216HW,2013-10-29 14:46:00,
2013-10-29 09:51:00,36.5,29.0,30.19,East,90,7.0,7.0,74,0.00,,,0.00,WUHU216HW,2013-10-29 14:51:00,
2013-10-29 09:56:00,36.7,29.2,30.18,ESE,113,5.0,8.0,74,0.00,,,0.00,WUHU216HW,2013-10-29 14:56:00,
2013-10-29 10:01:00,36.9,29.3,30.18,ESE,113,4.0,9.0,74,0.00,,,0.00,WUHU216HW,2013-10-29 15:01:00,
2013-10-29 10:06:00,37.1,29.5,30.18,East,90,4.0,9.0,74,0.00,,,0.00,WUHU216HW,2013-10-29 15:06:00,
2013-10-29 10:11:00,37.3,29.4,30.18,ESE,113,7.0,8.0,73,0.00,,,0.00,WUHU216HW,2013-10-29 15:11:00,
2013-10-29 10:16:00,37.3,29.4,30.18,ESE,113,4.0,8.0,73,0.00,,,0.00,WUHU216HW,2013-10-29 15:16:00,
2013-10-29 10:21:00,37.3,29.4,30.18,East,90,4.0,9.0,73,0.00,,,0.00,WUHU216HW,2013-10-29 15:21:00,
2013-10-29 10:26:00,37.4,29.3,30.18,ESE,113,5.0,9.0,72,0.00,,,0.00,WUHU216HW,2013-10-29 15:26:00,
2013-10-29 10:31:00,37.4,29.3,30.18,SE,135,3.0,8.0,72,0.00,,,0.00,WUHU216HW,2013-10-29 15:31:00,
2013-10-29 10:36:00,37.6,29.8,30.18,ESE,113,4.0,8.0,73,0.00,,,0.00,WUHU216HW,2013-10-29 15:36:00,
2013-10-29 10:41:00,37.8,30.0,30.18,East,90,6.0,7.0,73,0.00,,,0.00,WUHU216HW,2013-10-29 15:41:00,
2013-10-29 10:46:00,37.8,29.6,30.18,East,90,3.0,8.0,72,0.00,,,0.00,WUHU216HW,2013-10-29 15:46:00,
2013-10-29 10:51:00,37.8,29.6,30.18,East,90,3.0,8.0,72,0.00,,,0.00,WUHU216HW,2013-10-29 15:51:00,
2013-10-29 10:56:00,37.8,29.3,30.18,ESE,113,3.0,7.0,71,0.00,,,0.00,WUHU216HW,2013-10-29 15:56:00,
2013-10-29 11:01:00,37.8,29.3,30.18,ESE,113,4.0,7.0,71,0.00,,,0.00,WUHU216HW,2013-10-29 16:01:00,
2013-10-29 11:06:00,37.8,29.6,30.18,ESE,113,6.0,7.0,72,0.00,,,0.00,WUHU216HW,2013-10-29 16:06:00,
2013-10-29 11:11:00,37.8,29.3,30.18,ESE,113,4.0,8.0,71,0.00,,,0.00,WUHU216HW,2013-10-29 16:11:00,
2013-10-29 11:16:00,38.0,29.8,30.17,ESE,113,5.0,9.0,72,0.00,,,0.00,WUHU216HW,2013-10-29 16:16:00,
2013-10-29 11:21:00,38.0,29.8,30.17,SE,135,6.0,9.0,72,0.00,,,0.00,WUHU216HW,2013-10-29 16:21:00,
2013-10-29 11:26:00,38.2,30.0,30.17,ESE,113,5.0,6.0,72,0.00,,,0.00,WUHU216HW,2013-10-29 16:26:00,
2013-10-29 11:31:00,38.2,29.6,30.17,ENE,68,6.0,10.0,71,0.00,,,0.00,WUHU216HW,2013-10-29 16:31:00,
2013-10-29 11:36:00,38.2,29.6,30.16,East,90,8.0,10.0,71,0.00,,,0.00,WUHU216HW,2013-10-29 16:36:00,
2013-10-29 11:41:00,38.2,29.6,30.17,ESE,113,6.0,8.0,71,0.00,,,0.00,WUHU216HW,2013-10-29 16:41:00,
2013-10-29 11:46:00,38.3,29.8,30.17,ESE,113,5.0,8.0,71,0.00,,,0.00,WUHU216HW,2013-10-29 16:46:00,
2013-10-29 11:51:00,38.5,30.0,30.17,ESE,113,5.0,8.0,71,0.00,,,0.00,WUHU216HW,2013-10-29 16:51:00,
2013-10-29 11:56:00,38.5,30.0,30.17,East,90,5.0,7.0,71,0.00,,,0.00,WUHU216HW,2013-10-29 16:56:00,
2013-10-29 12:01:00,38.5,30.0,30.16,East,90,4.0,6.0,71,0.00,,,0.00,WUHU216HW,2013-10-29 17:01:00,
2013-10-29 12:06:00,38.7,30.1,30.16,East,90,7.0,8.0,71,0.00,,,0.00,WUHU216HW,2013-10-29 17:06:00,
2013-10-29 12:11:00,38.7,30.1,30.16,SE,135,4.0,8.0,71,0.00,,,0.00,WUHU216HW,2013-10-29 17:11:00,
2013-10-29 12:16:00,39.1,30.4,30.15,East,90,7.0,10.0,71,0.00,,,0.00,WUHU216HW,2013-10-29 17:16:00,
2013-10-29 12:21:00,39.2,30.6,30.15,NE,45,5.0,10.0,71,0.00,,,0.00,WUHU216HW,2013-10-29 17:21:00,
2013-10-29 12:26:00,39.2,30.6,30.14,ESE,113,4.0,9.0,71,0.00,,,0.00,WUHU216HW,2013-10-29 17:26:00,
2013-10-29 12:31:00,39.4,30.4,30.14,NNE,23,7.0,9.0,70,0.00,,,0.00,WUHU216HW,2013-10-29 17:31:00,
2013-10-29 12:36:00,39.4,30.4,30.13,ESE,113,3.0,10.0,70,0.00,,,0.00,WUHU216HW,2013-10-29 17:36:00,
2013-10-29 12:41:00,39.6,30.6,30.13,ENE,68,7.0,10.0,70,0.00,,,0.00,WUHU216HW,2013-10-29 17:41:00,
2013-10-29 12:46:00,40.0,31.0,30.12,ENE,68,7.0,9.0,70,0.00,,,0.00,WUHU216HW,2013-10-29 17:46:00,
2013-10-29 12:51:00,40.1,31.1,30.12,NNE,23,4.0,9.0,70,0.00,,,0.00,WUHU216HW,2013-10-29 17:51:00,
2013-10-29 12:56:00,40.7,31.3,30.11,ENE,68,9.0,9.0,69,0.00,,,0.00,WUHU216HW,2013-10-29 17:56:00,
2013-10-29 13:01:00,40.5,31.5,30.11,NNE,23,5.0,11.0,70,0.00,,,0.00,WUHU216HW,2013-10-29 18:01:00,
2013-10-29 13:06:00,40.7,31.7,30.10,ESE,113,7.0,11.0,70,0.00,,,0.00,WUHU216HW,2013-10-29 18:06:00,
2013-10-29 13:11:00,40.7,31.3,30.10,East,90,8.0,11.0,69,0.00,,,0.00,WUHU216HW,2013-10-29 18:11:00,
2013-10-29 13:16:00,40.7,31.3,30.10,ESE,113,6.0,11.0,69,0.00,,,0.00,WUHU216HW,2013-10-29 18:16:00,
2013-10-29 13:21:00,40.7,31.3,30.10,SSE,158,4.0,9.0,69,0.00,,,0.00,WUHU216HW,2013-10-29 18:21:00,
2013-10-29 13:26:00,40.9,31.5,30.10,East,90,9.0,9.0,69,0.00,,,0.00,WUHU216HW,2013-10-29 18:26:00,
2013-10-29 13:31:00,40.9,31.5,30.09,ESE,113,9.0,10.0,69,0.00,,,0.00,WUHU216HW,2013-10-29 18:31:00,
2013-10-29 13:36:00,40.9,31.5,30.09,East,90,7.0,10.0,69,0.00,,,0.00,WUHU216HW,2013-10-29 18:36:00,
2013-10-29 13:41:00,40.9,31.5,30.09,East,90,7.0,9.0,69,0.00,,,0.00,WUHU216HW,2013-10-29 18:41:00,
2013-10-29 13:46:00,41.0,31.7,30.09,East,90,5.0,9.0,69,0.00,,,0.00,WUHU216HW,2013-10-29 18:46:00,
2013-10-29 13:51:00,41.0,31.7,30.09,East,90,4.0,9.0,69,0.00,,,0.00,WUHU216HW,2013-10-29 18:51:00,
2013-10-29 13:56:00,41.2,31.9,30.10,ENE,68,7.0,9.0,69,0.00,,,0.00,WUHU216HW,2013-10-29 18:56:00,
2013-10-29 14:01:00,41.2,32.2,30.10,East,90,5.0,9.0,70,0.00,,,0.00,WUHU216HW,2013-10-29 19:01:00,
2013-10-29 14:06:00,41.2,31.9,30.09,ENE,68,6.0,9.0,69,0.00,,,0.00,WUHU216HW,2013-10-29 19:06:00,
2013-10-29 14:11:00,41.4,32.4,30.09,East,90,5.0,9.0,70,0.00,,,0.00,WUHU216HW,2013-10-29 19:11:00,
2013-10-29 14:16:00,41.4,32.1,30.09,East,90,5.0,8.0,69,0.00,,,0.00,WUHU216HW,2013-10-29 19:16:00,
2013-10-29 14:21:00,41.4,32.1,30.09,ESE,113,5.0,8.0,69,0.00,,,0.00,WUHU216HW,2013-10-29 19:21:00,
2013-10-29 14:26:00,41.4,32.4,30.09,ESE,113,7.0,7.0,70,0.00,,,0.00,WUHU216HW,2013-10-29 19:26:00,
2013-10-29 14:31:00,41.2,31.9,30.09,East,90,5.0,9.0,69,0.00,,,0.00,WUHU216HW,2013-10-29 19:31:00,
2013-10-29 14:36:00,41.2,31.9,30.08,NE,45,6.0,9.0,69,0.00,,,0.00,WUHU216HW,2013-10-29 19:36:00,
2013-10-29 14:41:00,41.2,32.2,30.08,North,0,7.0,9.0,70,0.00,,,0.00,WUHU216HW,2013-10-29 19:41:00,
2013-10-29 14:46:00,41.0,32.0,30.08,NE,45,5.0,9.0,70,0.00,,,0.00,WUHU216HW,2013-10-29 19:46:00,
2013-10-29 14:51:00,41.2,32.2,30.08,ENE,68,7.0,9.0,70,0.00,,,0.00,WUHU216HW,2013-10-29 19:51:00,
2013-10-29 14:56:00,41.2,32.2,30.08,NNE,23,7.0,8.0,70,0.00,,,0.00,WUHU216HW,2013-10-29 19:56:00,
2013-10-29 15:01:00,41.4,32.4,30.07,East,90,8.0,9.0,70,0.00,,,0.00,WUHU216HW,2013-10-29 20:01:00,
2013-10-29 15:06:00,41.4,32.4,30.07,ESE,113,5.0,9.0,70,0.00,,,0.00,WUHU216HW,2013-10-29 20:06:00,
2013-10-29 15:11:00,41.6,32.6,30.07,ENE,68,7.0,9.0,70,0.00,,,0.00,WUHU216HW,2013-10-29 20:11:00,
2013-10-29 15:16:00,41.8,32.8,30.07,ESE,113,5.0,9.0,70,0.00,,,0.00,WUHU216HW,2013-10-29 20:16:00,
2013-10-29 15:21:00,41.9,32.9,30.07,East,90,7.0,9.0,70,0.00,,,0.00,WUHU216HW,2013-10-29 20:21:00,
2013-10-29 15:26:00,42.1,33.1,30.07,ESE,113,3.0,8.0,70,0.00,,,0.00,WUHU216HW,2013-10-29 20:26:00,
2013-10-29 15:31:00,42.1,33.1,30.07,East,90,4.0,8.0,70,0.00,,,0.00,WUHU216HW,2013-10-29 20:31:00,
2013-10-29 15:36:00,42.1,32.8,30.07,NE,45,8.0,8.0,69,0.00,,,0.00,WUHU216HW,2013-10-29 20:36:00,
2013-10-29 15:41:00,42.1,33.1,30.07,North,0,5.0,8.0,70,0.00,,,0.00,WUHU216HW,2013-10-29 20:41:00,
2013-10-29 15:46:00,42.1,32.8,30.07,SE,135,3.0,7.0,69,0.00,,,0.00,WUHU216HW,2013-10-29 20:46:00,
2013-10-29 15:51:00,42.1,33.1,30.07,East,90,8.0,8.0,70,0.00,,,0.00,WUHU216HW,2013-10-29 20:51:00,
2013-10-29 15:56:00,42.1,33.5,30.06,East,90,4.0,8.0,71,0.00,,,0.00,WUHU216HW,2013-10-29 20:56:00,
2013-10-29 16:01:00,42.3,33.3,30.06,East,90,5.0,8.0,70,0.00,,,0.00,WUHU216HW,2013-10-29 21:01:00,
2013-10-29 16:06:00,42.3,33.3,30.05,NNE,23,5.0,7.0,70,0.00,,,0.00,WUHU216HW,2013-10-29 21:06:00,
2013-10-29 16:11:00,42.3,33.3,30.05,NE,45,7.0,7.0,70,0.00,,,0.00,WUHU216HW,2013-10-29 21:11:00,
2013-10-29 16:16:00,42.1,33.1,30.05,ENE,68,7.0,9.0,70,0.00,,,0.00,WUHU216HW,2013-10-29 21:16:00,
2013-10-29 16:21:00,42.1,33.1,30.05,East,90,7.0,9.0,70,0.00,,,0.00,WUHU216HW,2013-10-29 21:21:00,
2013-10-29 16:26:00,42.1,33.1,30.05,East,90,5.0,9.0,70,0.00,,,0.00,WUHU216HW,2013-10-29 21:26:00,
2013-10-29 16:31:00,42.3,33.3,30.05,NNE,23,9.0,9.0,70,0.00,,,0.00,WUHU216HW,2013-10-29 21:31:00,
2013-10-29 16:36:00,42.5,33.5,30.05,East,90,12.0,12.0,70,0.00,,,0.00,WUHU216HW,2013-10-29 21:36:00,
2013-10-29 16:41:00,42.5,33.5,30.04,East,90,5.0,12.0,70,0.00,,,0.00,WUHU216HW,2013-10-29 21:41:00,
2013-10-29 16:46:00,42.7,33.3,30.04,NE,45,5.0,12.0,69,0.00,,,0.00,WUHU216HW,2013-10-29 21:46:00,
2013-10-29 16:51:00,42.5,33.5,30.04,East,90,3.0,9.0,70,0.00,,,0.00,WUHU216HW,2013-10-29 21:51:00,
2013-10-29 16:56:00,42.5,33.5,30.04,East,90,6.0,8.0,70,0.00,,,0.00,WUHU216HW,2013-10-29 21:56:00,
2013-10-29 17:01:00,42.5,33.9,30.04,East,90,8.0,9.0,71,0.00,,,0.00,WUHU216HW,2013-10-29 22:01:00,
2013-10-29 17:06:00,42.3,33.7,30.03,ESE,113,3.0,9.0,71,0.00,,,0.00,WUHU216HW,2013-10-29 22:06:00,
2013-10-29 17:11:00,42.3,33.7,30.03,ESE,113,7.0,9.0,71,0.00,,,0.00,WUHU216HW,2013-10-29 22:11:00,
2013-10-29 17:16:00,42.1,33.1,30.03,East,90,5.0,10.0,70,0.00,,,0.00,WUHU216HW,2013-10-29 22:16:00,
2013-10-29 17:21:00,42.3,33.3,30.03,East,90,4.0,10.0,70,0.00,,,0.00,WUHU216HW,2013-10-29 22:21:00,
2013-10-29 17:26:00,42.1,33.1,30.03,East,90,6.0,9.0,70,0.00,,,0.00,WUHU216HW,2013-10-29 22:26:00,
2013-10-29 17:31:00,42.1,33.1,30.03,East,90,6.0,9.0,70,0.00,,,0.00,WUHU216HW,2013-10-29 22:31:00,
2013-10-29 17:36:00,42.1,33.1,30.03,ENE,68,4.0,10.0,70,0.00,,,0.00,WUHU216HW,2013-10-29 22:36:00,
2013-10-29 17:41:00,42.1,33.5,30.02,East,90,3.0,10.0,71,0.00,,,0.00,WUHU216HW,2013-10-29 22:41:00,
2013-10-29 17:46:00,42.1,33.5,30.02,ESE,113,5.0,7.0,71,0.00,,,0.00,WUHU216HW,2013-10-29 22:46:00,
2013-10-29 17:51:00,41.9,33.3,30.02,East,90,4.0,8.0,71,0.00,,,0.00,WUHU216HW,2013-10-29 22:51:00,
2013-10-29 17:56:00,41.8,33.1,30.02,East,90,5.0,9.0,71,0.00,,,0.00,WUHU216HW,2013-10-29 22:56:00,
2013-10-29 18:01:00,41.8,33.4,30.02,East,90,3.0,9.0,72,0.00,,,0.00,WUHU216HW,2013-10-29 23:01:00,
2013-10-29 18:06:00,41.6,33.2,30.02,East,90,4.0,7.0,72,0.00,,,0.00,WUHU216HW,2013-10-29 23:06:00,
2013-10-29 18:11:00,41.6,33.2,30.02,ESE,113,6.0,8.0,72,0.00,,,0.00,WUHU216HW,2013-10-29 23:11:00,
2013-10-29 18:16:00,41.4,33.0,30.03,East,90,3.0,8.0,72,0.00,,,0.00,WUHU216HW,2013-10-29 23:16:00,
2013-10-29 18:21:00,41.4,33.4,30.02,ESE,113,5.0,7.0,73,0.00,,,0.00,WUHU216HW,2013-10-29 23:21:00,
2013-10-29 18:26:00,41.4,33.4,30.02,ESE,113,5.0,6.0,73,0.00,,,0.00,WUHU216HW,2013-10-29 23:26:00,
2013-10-29 18:31:00,41.4,33.7,30.02,ENE,68,2.0,7.0,74,0.00,,,0.00,WUHU216HW,2013-10-29 23:31:00,
2013-10-29 18:36:00,41.2,33.5,30.02,East,90,7.0,7.0,74,0.00,,,0.00,WUHU216HW,2013-10-29 23:36:00,
2013-10-29 18:41:00,41.2,33.5,30.02,SE,135,4.0,8.0,74,0.00,,,0.00,WUHU216HW,2013-10-29 23:41:00,
2013-10-29 18:46:00,41.2,33.5,30.02,NE,45,7.0,9.0,74,0.00,,,0.00,WUHU216HW,2013-10-29 23:46:00,
2013-10-29 18:51:00,41.0,33.3,30.01,East,90,8.0,9.0,74,0.00,,,0.00,WUHU216HW,2013-10-29 23:51:00,
2013-10-29 18:56:00,41.0,33.7,30.01,ENE,68,10.0,10.0,75,0.00,,,0.00,WUHU216HW,2013-10-29 23:56:00,
2013-10-29 19:01:00,41.0,33.7,30.01,East,90,5.0,10.0,75,0.00,,,0.00,WUHU216HW,2013-10-30 00:01:00,
2013-10-29 19:06:00,41.0,33.7,30.02,ENE,68,6.0,9.0,75,0.00,,,0.00,WUHU216HW,2013-10-30 00:06:00,
2013-10-29 19:11:00,41.0,33.7,30.01,ESE,113,4.0,9.0,75,0.00,,,0.00,WUHU216HW,2013-10-30 00:11:00,
2013-10-29 19:16:00,41.0,33.7,30.01,East,90,7.0,9.0,75,0.00,,,0.00,WUHU216HW,2013-10-30 00:16:00,
2013-10-29 19:21:00,41.0,33.7,30.01,East,90,6.0,12.0,75,0.00,,,0.00,WUHU216HW,2013-10-30 00:21:00,
2013-10-29 19:26:00,41.0,33.7,30.01,ESE,113,6.0,12.0,75,0.00,,,0.00,WUHU216HW,2013-10-30 00:26:00,
2013-10-29 19:31:00,41.0,33.7,30.01,East,90,6.0,9.0,75,0.00,,,0.00,WUHU216HW,2013-10-30 00:31:00,
2013-10-29 19:36:00,41.0,33.7,30.01,ESE,113,5.0,8.0,75,0.00,,,0.00,WUHU216HW,2013-10-30 00:36:00,
2013-10-29 19:41:00,41.0,33.7,30.01,East,90,5.0,8.0,75,0.00,,,0.00,WUHU216HW,2013-10-30 00:41:00,
2013-10-29 19:46:00,41.0,33.7,30.01,ESE,113,3.0,8.0,75,0.00,,,0.00,WUHU216HW,2013-10-30 00:46:00,
2013-10-29 19:51:00,41.0,33.7,30.01,East,90,6.0,8.0,75,0.00,,,0.00,WUHU216HW,2013-10-30 00:51:00,
2013-10-29 19:56:00,41.0,33.7,30.01,East,90,7.0,8.0,75,0.00,,,0.00,WUHU216HW,2013-10-30 00:56:00,
2013-10-29 20:01:00,41.2,33.8,30.01,East,90,4.0,7.0,75,0.00,,,0.00,WUHU216HW,2013-10-30 01:01:00,
2013-10-29 20:06:00,41.2,33.8,30.00,ESE,113,5.0,7.0,75,0.00,,,0.00,WUHU216HW,2013-10-30 01:06:00,
2013-10-29 20:11:00,41.2,33.8,30.01,SSE,158,5.0,6.0,75,0.00,,,0.00,WUHU216HW,2013-10-30 01:11:00,
2013-10-29 20:16:00,41.2,33.8,30.00,ENE,68,8.0,8.0,75,0.00,,,0.00,WUHU216HW,2013-10-30 01:16:00,
2013-10-29 20:21:00,41.2,33.8,29.99,NE,45,6.0,8.0,75,0.00,,,0.00,WUHU216HW,2013-10-30 01:21:00,
2013-10-29 20:26:00,41.2,33.8,29.99,East,90,3.0,8.0,75,0.00,,,0.00,WUHU216HW,2013-10-30 01:26:00,
2013-10-29 20:31:00,41.0,33.7,30.00,ESE,113,7.0,8.0,75,0.00,,,0.00,WUHU216HW,2013-10-30 01:31:00,
2013-10-29 20:36:00,41.0,33.7,30.00,East,90,2.0,8.0,75,0.00,,,0.00,WUHU216HW,2013-10-30 01:36:00,
2013-10-29 20:41:00,41.2,33.8,30.00,East,90,5.0,7.0,75,0.00,,,0.00,WUHU216HW,2013-10-30 01:41:00,
2013-10-29 20:46:00,41.2,34.2,30.00,ENE,68,6.0,7.0,76,0.00,,,0.00,WUHU216HW,2013-10-30 01:46:00,
2013-10-29 20:51:00,41.2,34.2,30.00,ENE,68,4.0,6.0,76,0.00,,,0.00,WUHU216HW,2013-10-30 01:51:00,
2013-10-29 20:56:00,41.2,34.2,30.00,East,90,3.0,6.0,76,0.00,,,0.00,WUHU216HW,2013-10-30 01:56:00,
2013-10-29 21:01:00,41.2,34.2,30.00,East,90,4.0,6.0,76,0.00,,,0.00,WUHU216HW,2013-10-30 02:01:00,
2013-10-29 21:06:00,41.2,34.2,30.00,East,90,3.0,5.0,76,0.00,,,0.00,WUHU216HW,2013-10-30 02:06:00,
2013-10-29 21:11:00,41.2,34.2,30.00,East,90,5.0,6.0,76,0.00,,,0.00,WUHU216HW,2013-10-30 02:11:00,
2013-10-29 21:16:00,41.2,34.2,30.00,East,90,3.0,6.0,76,0.00,,,0.00,WUHU216HW,2013-10-30 02:16:00,
2013-10-29 21:21:00,41.2,34.5,30.00,NE,45,3.0,5.0,77,0.00,,,0.00,WUHU216HW,2013-10-30 02:21:00,
2013-10-29 21:26:00,41.2,34.5,30.00,ENE,68,3.0,6.0,77,0.00,,,0.00,WUHU216HW,2013-10-30 02:26:00,
2013-10-29 21:31:00,41.2,34.5,30.00,ESE,113,3.0,7.0,77,0.00,,,0.00,WUHU216HW,2013-10-30 02:31:00,
2013-10-29 21:36:00,41.2,34.5,30.00,ENE,68,3.0,7.0,77,0.00,,,0.00,WUHU216HW,2013-10-30 02:36:00,
2013-10-29 21:41:00,41.2,34.8,30.00,East,90,4.0,5.0,78,0.00,,,0.00,WUHU216HW,2013-10-30 02:41:00,
2013-10-29 21:46:00,41.0,34.9,30.00,East,90,4.0,5.0,79,0.00,,,0.00,WUHU216HW,2013-10-30 02:46:00,
2013-10-29 21:51:00,40.9,34.8,30.00,NE,45,5.0,5.0,79,0.00,,,0.00,WUHU216HW,2013-10-30 02:51:00,
2013-10-29 21:56:00,40.9,34.8,30.01,East,90,1.0,5.0,79,0.00,,,0.00,WUHU216HW,2013-10-30 02:56:00,
2013-10-29 22:01:00,40.7,34.7,30.01,North,0,2.0,5.0,79,0.00,,,0.00,WUHU216HW,2013-10-30 03:01:00,
2013-10-29 22:06:00,40.7,34.7,30.01,NE,45,0.0,3.0,79,0.00,,,0.00,WUHU216HW,2013-10-30 03:06:00,
2013-10-29 22:11:00,40.7,34.9,30.01,NNE,23,0.0,3.0,80,0.00,,,0.00,WUHU216HW,2013-10-30 03:11:00,
2013-10-29 22:16:00,40.5,35.1,30.01,SE,135,1.0,2.0,81,0.00,,,0.00,WUHU216HW,2013-10-30 03:16:00,
2013-10-29 22:21:00,40.5,35.7,30.01,NE,45,2.0,3.0,83,0.00,,,0.00,WUHU216HW,2013-10-30 03:21:00,
2013-10-29 22:26:00,40.5,35.4,30.01,NE,45,2.0,3.0,82,0.00,,,0.00,WUHU216HW,2013-10-30 03:26:00,
2013-10-29 22:31:00,40.3,35.6,30.01,NNE,23,1.0,3.0,83,0.00,,,0.00,WUHU216HW,2013-10-30 03:31:00,
2013-10-29 22:36:00,40.3,35.8,30.01,NE,45,1.0,3.0,84,0.00,,,0.00,WUHU216HW,2013-10-30 03:36:00,
2013-10-29 22:41:00,40.3,35.6,30.01,WNW,293,1.0,4.0,83,0.00,,,0.00,WUHU216HW,2013-10-30 03:41:00,
2013-10-29 22:46:00,40.3,35.8,30.01,ENE,68,1.0,4.0,84,0.00,,,0.00,WUHU216HW,2013-10-30 03:46:00,
2013-10-29 22:51:00,40.3,36.1,30.01,ESE,113,3.0,3.0,85,0.00,,,0.00,WUHU216HW,2013-10-30 03:51:00,
2013-10-29 22:56:00,40.3,36.5,30.00,NNE,23,3.0,3.0,86,0.00,,,0.00,WUHU216HW,2013-10-30 03:56:00,
2013-10-29 23:01:00,40.1,36.3,30.01,East,90,3.0,4.0,86,0.00,,,0.00,WUHU216HW,2013-10-30 04:01:00,
2013-10-29 23:06:00,40.1,36.5,30.00,East,90,2.0,4.0,87,0.00,,,0.00,WUHU216HW,2013-10-30 04:06:00,
2013-10-29 23:11:00,40.0,36.4,30.00,East,90,3.0,4.0,87,0.00,,,0.00,WUHU216HW,2013-10-30 04:11:00,
2013-10-29 23:16:00,40.0,36.4,30.01,NNW,338,1.0,4.0,87,0.00,,,0.00,WUHU216HW,2013-10-30 04:16:00,
2013-10-29 23:21:00,40.0,36.4,30.00,NNE,23,3.0,3.0,87,0.00,,,0.00,WUHU216HW,2013-10-30 04:21:00,
2013-10-29 23:26:00,40.0,36.4,30.00,NNE,23,1.0,3.0,87,0.00,,,0.00,WUHU216HW,2013-10-30 04:26:00,
2013-10-29 23:31:00,40.0,36.4,30.00,NNE,23,0.0,3.0,87,0.00,,,0.00,WUHU216HW,2013-10-30 04:31:00,
2013-10-29 23:36:00,39.8,36.5,29.99,NE,45,2.0,3.0,88,0.00,,,0.00,WUHU216HW,2013-10-30 04:36:00,
2013-10-29 23:41:00,39.8,36.8,29.99,ESE,113,3.0,3.0,89,0.00,,,0.00,WUHU216HW,2013-10-30 04:41:00,
2013-10-29 23:46:00,39.6,36.6,29.99,ENE,68,2.0,3.0,89,0.00,,,0.00,WUHU216HW,2013-10-30 04:46:00,
2013-10-29 23:51:00,39.6,36.9,29.99,East,90,1.0,4.0,90,0.00,,,0.00,WUHU216HW,2013-10-30 04:51:00,
2013-10-29 23:56:00,39.6,36.9,29.99,NNE,23,0.0,4.0,90,0.00,,,0.00,WUHU216HW,2013-10-30 04:56:00,